This demonstration page uses our WeatherBlox Daily Observations layout. Learn more.

38.89511, -77.03637

Hourly Observations for July 22, 2019

Temp ( °F °C ) Dew Point ( °F °C ) Humidity (%) Winds ( mph kmh ) Pressure ( in mb ) Visibility ( mi km ) Precip ( " mm )
12:52 am 00:52 Mostly Cloudy 80 26.7 68 20 67 67 N 6 9 29.88 1012 10 16.09344 0 0
1:52 am 01:52 Cloudy 79 26.1 69 20.6 72 72 N 3 6 29.88 1012 10 16.09344 0 0
2:52 am 02:52 Mostly Cloudy 80 26.7 69 20.6 69 69 Calm 29.88 1012 10 16.09344 0 0
3:52 am 03:52 Mostly Cloudy 78 25.6 69 20.6 74 74 SW 7 11 29.85 1011 10 16.09344 0 0
4:52 am 04:52 Partly Cloudy 78 25.6 69 20.6 74 74 SW 3 6 29.85 1011 10 16.09344 0 0
5:52 am 05:52 Partly Cloudy 78 25.6 69 20.6 74 74 Calm 29.85 1011 10 16.09344 0 0
6:52 am 06:52 Mostly Sunny 79 26.1 70 21.1 74 74 ESE 3 6 29.85 1011 10 16.09344 0 0
7:52 am 07:52 Mostly Sunny 81 27.2 71 21.7 72 72 Calm 29.85 1011 10 16.09344 0 0
8:52 am 08:52 Mostly Sunny 82 27.8 71 21.7 69 69 S 7 11 29.85 1011 10 16.09344 0 0
9:52 am 09:52 Mostly Sunny 84 28.9 73 22.8 70 70 SSE 3 6 29.83 1010 10 16.09344 0 0
10:52 am 10:52 Partly Cloudy 86 30 75 23.9 70 70 S 12 19 29.83 1010 10 16.09344 0 0
11:52 am 11:52 Partly Cloudy 88 31.1 74 23.3 63 63 S 13 20 29.83 1010 10 16.09344 0 0
12:52 pm 12:52 Partly Cloudy 91 32.8 73 22.8 56 56 S 15 24 29.8 1009 10 16.09344 0 0
1:52 pm 13:52 Partly Cloudy 94 34.4 72 22.2 49 49 WSW 14 22 29.77 1008 10 16.09344 0 0
2:52 pm 14:52 Mostly Cloudy 92 33.3 71 21.7 51 51 SW 10 17 29.74 1007 10 16.09344 0.001 0.001
3:25 pm 15:25 Mostly Cloudy with Thunderstorms 93 33.9 69 20.6 46 46 SW 18 30 29.77 1008 10 16.09344 0 0
3:52 pm 15:52 Mostly Cloudy with Thunderstorms 93 33.9 69 20.6 46 46 SW 15 24 29.74 1007 10 16.09344 0 0
3:54 pm 15:54 Partly Cloudy with Nearby Thunderstorms 93 33.9 70 21.1 47 47 SW 16 26 29.74 1007 10 16.09344 0 0
4:08 pm 16:08 Mostly Cloudy 91 32.8 71 21.7 52 52 SW 13 20 29.74 1007 10 16.09344 0 0
4:41 pm 16:41 Mostly Cloudy 84 28.9 70 21.1 63 63 NW 17 28 29.77 1008 10 16.09344 0 0
4:52 pm 16:52 Mostly Cloudy 84 28.9 70 21.1 63 63 WNW 14 22 29.77 1008 10 16.09344 0 0
5:52 pm 17:52 Partly Cloudy 85 29.4 70 21.1 61 61 NW 8 13 29.77 1008 10 16.09344 0 0
6:52 pm 18:52 Mostly Cloudy 84 28.9 72 22.2 67 67 N 5 7 29.77 1008 10 16.09344 0 0
7:52 pm 19:52 Mostly Cloudy 88 31.1 71 21.7 57 57 WSW 15 24 29.77 1008 10 16.09344 0 0
8:52 pm 20:52 Mostly Cloudy with Rain 80 26.7 70 21.1 71 71 SSW 21 33 29.77 1008 10 16.09344 0.001 0.001
9:52 pm 21:52 Mostly Cloudy 77 25 68 20 74 74 SSW 13 20 29.77 1008 10 16.09344 0.03 0.762
10:52 pm 22:52 Cloudy 77 25 67 19.4 71 71 SW 14 22 29.77 1008 10 16.09344 0 0
11:52 pm 23:52 Cloudy 76 24.4 67 19.4 74 74 W 8 13 29.77 1008 10 16.09344 0 0

Powered by AerisWeather